Dewpoint
45 45 45 45 44 44 44 43 43 43 43 44 44 45 46 46 46 45 42 43 39 36 37 39 39 36 36 36 33 34 34 33 32 30 29 26 26 28 28 28 26 25 24 24 26 22 21 25 16 15 22 25 21 21
45 45 45 45 44 44 43 43 43 43 44 44 44 45 45 44 45 45 41 44 44 39 39 41 41 40 38 36 34 36 32 34 34 32 31 30 27 28 27 23 30 25 27 26 27 26 30 22 24 27 22 20 18 18
45 45 45 44 44 44 44 43 43 43 43 43 43 44 44 45 44 44 42 43 41 38 38 38 37 41 41 41 38 35 34 35 34 34 33 31 27 29 25 26 27 29 29 29 28 27 23 20 19 19 18 18 19 20
44 44 44 44 44 44 44 44 43 43 43 43 43 43 43 43 44 43 41 43 39 37 32 33 42 40 42 41 42 41 37 36 36 34 32 31 29 32 29 29 27 30 30 29 26 24 21 20 18 19 20 22 22 21
44 44 44 44 44 44 44 44 43 43 42 42 43 43 44 43 43 42 42 42 40 36 31 32 38 40 42 40 39 39 38 35 33 31 29 28 29 29 29 29 29 31 29 23 21 23 23 21 25 26 27 29 29 29
44 44 44 44 44 44 44 43 43 42 41 41 43 43 43 43 43 41 33 40 41 41 33 28 34 36 40 41 40 39 38 38 36 33 30 30 30 29 26 20 22 24 27 23 22 24 24 28 29 30 29 29 29 29
44 44 44 45 44 44 43 42 42 42 41 41 42 43 42 43 38 35 34 38 42 41 33 29 30 35 39 38 38 37 38 36 35 32 30 27 28 29 27 23 23 25 25 23 24 26 27 27 26 28 27 27 30 33
43 44 44 44 44 43 43 42 43 42 42 42 43 43 41 41 39 34 37 40 43 36 34 27 28 32 36 32 32 36 32 33 33 31 30 28 30 28 23 23 22 24 26 26 27 26 27 26 29 31 32 33 33 33
42 43 43 43 43 42 41 41 41 41 42 43 43 40 35 36 34 34 41 42 39 33 29 28 25 25 35 31 33 33 33 28 31 28 28 28 27 21 23 24 21 25 27 28 27 26 27 28 31 32 33 33 32 31
42 42 43 43 42 42 41 41 41 41 43 41 36 31 25 32 40 40 33 31 32 33 33 29 31 29 31 30 30 29 30 27 24 25 27 25 24 26 28 28 31 30 29 29 28 28 30 30 32 32 32 31 31 31
41 42 42 42 42 42 42 41 41 41 38 34 28 22 32 39 33 29 23 25 26 26 30 31 30 29 32 27 27 29 26 27 20 22 22 23 21 27 32 31 32 32 32 32 32 31 31 30 31 31 30 30 30 30
39 40 40 42 42 42 41 41 41 36 34 35 34 36 34 28 25 18 19 23 22 22 28 27 29 30 30 31 27 27 24 25 20 24 18 18 22 30 30 30 29 30 31 31 31 31 31 32 31 30 29 29 29 29
38 38 39 40 41 40 41 41 41 41 39 38 34 25 24 23 16 21 16 21 19 24 27 27 26 28 28 28 26 25 19 19 24 15 18 20 27 30 29 29 29 29 29 29 29 29 30 31 31 30 30 30 28 28
36 38 38 39 41 41 41 41 41 40 37 30 26 13 19 16 23 26 26 23 25 26 27 27 25 25 26 23 25 18 23 23 15 10 16 22 29 29 29 29 28 28 28 28 29 29 29 28 28 28 29 29 29 26
36 36 37 39 40 40 40 40 41 36 34 27 25 16 20 25 23 24 24 25 26 28 26 25 25 25 24 19 24 21 16 14 18 14 20 26 29 29 29 29 29 30 27 27 29 28 28 27 27 27 27 28 28 28
35 36 37 38 38 38 40 40 37 35 31 27 27 22 23 19 16 18 19 23 28 24 26 24 23 18 18 22 20 14 17 14 17 22 30 29 29 29 29 31 30 29 29 28 29 28 28 27 27 27 26 21 20 21
34 35 38 37 38 38 39 36 34 30 27 27 25 18 19 19 22 24 25 27 30 25 21 24 17 16 22 19 18 20 17 20 22 29 31 29 29 29 31 30 30 29 29 28 29 29 29 28 28 26 25 25 27 27
33 33 34 36 36 35 35 35 31 27 26 25 23 22 27 23 26 27 29 28 29 28 27 23 27 21 16 17 18 23 24 24 26 29 28 30 30 29 30 29 30 29 29 29 27 28 27 28 27 27 28 29 29 29
32 32 34 34 36 32 31 29 30 24 22 24 24 25 24 22 27 28 25 27 29 32 28 25 24 22 22 27 24 27 24 26 26 27 27 30 30 30 30 30 29 29 29 29 29 29 28 27 27 28 29 28 28 28
31 34 36 35 36 29 28 26 31 26 23 24 25 25 25 25 25 24 24 26 28 28 24 23 23 26 25 26 29 29 30 31 30 28 30 31 29 30 30 29 29 29 28 28 28 28 28 29 30 30 29 29 28 28
31 33 34 36 32 29 27 26 26 26 25 25 26 27 25 25 24 23 24 28 28 24 22 24 23 23 28 27 28 30 30 31 29 30 30 29 30 30 31 29 30 31 30 30 29 29 29 29 30 30 30 30 29 29
31 34 31 34 29 26 26 26 24 26 25 24 25 26 22 16 17 24 26 23 24 24 25 25 25 27 27 29 29 31 31 32 32 30 31 29 26 27 29 32 31 31 31 31 31 30 29 31 31 30 30 29 29 27
30 31 29 29 26 21 19 26 20 21 20 22 24 23 21 20 23 27 20 24 23 25 26 25 28 31 30 32 31 31 32 31 30 30 31 32 32 31 28 28 33 32 31 32 32 32 31 31 29 29 29 28 28 27
30 26 23 23 24 17 24 18 23 21 21 21 20 16 18 19 25 25 22 23 27 26 26 27 30 31 31 31 30 29 30 31 31 31 31 31 31 32 33 32 33 33 33 33 33 32 32 32 31 30 29 28 27 27
19 14 18 13 23 20 18 17 19 19 13 17 14 13 16 23 16 17 18 21 22 23 25 27 29 29 27 27 28 30 31 31 31 31 32 33 32 32 32 32 32 32 33 33 32 32 32 32 32 30 29 28 27 26
14 12 16 15 17 18 17 13 12 13 15 13 15 20 20 12 7 7 18 22 19 14 13 17 20 22 23 25 25 26 27 30 31 31 31 33 33 32 31 29 29 29 31 32 32 32 32 32 31 29 28 28 27 27
10 8 21 23 23 21 19 20 21 15 10 9 13 12 10 4 3 12 13 16 17 17 21 20 20 21 22 23 25 27 28 28 28 29 30 31 32 32 32 28 28 28 31 31 31 25 31 31 30 29 28 28 28 27
11 15 10 16 17 20 13 15 14 12 13 19 17 7 6 8 8 16 17 18 18 20 19 20 21 20 19 19 19 19 21 25 27 28 28 29 29 29 26 25 29 28 30 29 31 32 33 32 31 30 29 28 29 29
7 13 18 13 13 15 14 13 15 19 21 19 13 11 12 20 18 16 18 20 20 17 8 7 7 5 8 11 11 11 13 15 18 18 20 21 22 24 24 25 26 26 28 29 29 29 29 30 31 30 31 30 29 30
7 17 14 12 11 12 14 17 15 18 21 19 19 17 16 16 16 19 19 17 16 10 11 8 4 3 2 3 3 4 3 8 15 20 16 17 21 23 25 27 28 28 28 28 26 25 25 21 24 25 25 25 26 28
17 16 11 11 8 11 13 14 15 15 14 13 12 12 13 11 14 14 13 11 7 1 3 3 4 -1 3 -1 -3 -2 3 10 18 19 19 17 17 19 22 28 29 29 28 28 27 26 24 18 18 20 20 21 23 24
11 9 5 1 7 13 12 9 9 9 11 10 9 7 8 10 10 12 15 4 3 3 -0 -1 2 3 0 -1 -1 1 7 5 5 11 10 14 17 18 20 22 25 26 26 25 25 25 25 24 24 24 23 23 24 26
8 8 8 2 4 5 8 8 8 8 7 8 8 7 9 11 7 10 10 7 7 3 1 0 -3 -3 2 6 9 8 2 0 5 13 12 14 14 17 16 17 18 21 23 23 23 23 22 22 22 23 23 23 21 21
Lifted_Index
0 0 1 1 2 2 4 5 5 5 5 5 5 5 5 5 5 4 4 5 4 3 1 -0 -0 0 1 1 1 2 2 1 1 0 1 1 2 2 2 3 3 2 1 1 1 1 3 6 7 6 6 7 8 8
0 0 1 1 1 2 3 4 5 5 5 5 5 5 5 5 5 5 5 5 4 2 0 -0 -0 0 1 1 2 2 1 1 1 1 1 1 2 2 2 3 3 3 3 2 2 3 4 6 7 7 7 8 8 8
0 0 0 1 1 2 3 4 5 5 5 5 5 5 5 5 5 4 4 4 3 1 0 0 0 1 1 2 2 2 1 1 1 1 2 2 2 2 2 2 3 4 4 3 3 5 6 7 8 8 8 8 8 8
1 1 1 1 1 1 2 4 5 5 5 5 5 5 5 5 5 5 4 3 2 1 1 1 2 2 2 2 2 2 2 1 1 2 2 2 2 2 2 2 3 4 5 4 4 5 6 7 8 8 8 8 8 9
1 1 1 1 1 1 2 3 5 5 6 6 5 5 5 5 5 5 4 4 3 2 2 2 3 3 4 3 3 2 2 2 2 2 2 2 3 3 3 3 4 5 5 5 5 6 6 7 7 8 8 8 8 9
1 1 1 1 1 1 2 3 4 5 6 6 6 5 5 5 5 5 5 5 5 4 3 3 4 4 4 4 3 3 3 3 3 3 3 3 4 4 4 4 5 5 5 5 5 6 6 6 7 7 7 7 8 8
1 1 1 1 1 1 2 3 4 5 5 6 6 5 5 5 5 5 5 5 6 5 4 4 4 4 5 4 4 4 4 4 4 4 4 4 5 5 4 5 6 6 6 6 6 6 6 6 6 6 7 7 7 7
2 2 1 1 2 2 2 3 3 3 4 5 5 6 6 6 5 5 5 5 5 5 5 4 4 4 4 4 4 4 5 5 5 5 5 5 5 5 5 5 6 6 6 6 6 5 5 6 6 6 7 7 7 7
3 2 2 2 2 2 3 3 3 3 3 4 5 5 6 5 5 5 5 5 5 5 5 5 4 4 4 4 4 5 5 5 5 5 5 5 5 5 6 6 6 6 6 5 5 5 5 6 6 6 6 6 6 6
4 3 3 2 2 2 2 2 2 2 2 2 3 4 4 4 4 5 5 5 5 5 5 5 5 5 5 4 4 5 5 5 5 5 5 5 5 5 6 6 5 5 5 5 5 5 5 6 6 5 5 5 5 5
6 5 3 3 2 2 2 2 2 1 1 1 1 2 2 3 3 4 4 5 4 4 4 5 4 4 5 5 5 5 5 5 5 5 5 5 5 5 5 5 5 5 5 5 5 5 5 5 5 5 4 4 4 5
7 6 5 3 3 2 2 2 1 1 1 0 0 1 1 2 2 3 3 3 3 4 4 4 4 4 4 4 5 5 5 4 4 5 5 5 4 4 4 4 4 4 4 4 5 5 5 5 4 4 4 4 4 4
9 8 6 4 3 2 2 2 2 1 0 -0 0 1 1 1 1 2 2 2 2 2 2 3 3 3 4 4 4 4 4 4 4 4 4 4 3 3 3 3 3 3 3 4 4 4 4 4 4 4 4 4 5 5
10 9 8 6 4 3 2 2 2 1 0 -0 0 1 1 1 1 1 1 1 1 1 1 1 2 2 2 2 2 2 2 2 2 2 2 2 2 2 2 2 2 2 3 3 4 4 4 4 4 4 5 5 5 5
11 10 8 7 6 4 3 3 2 1 0 0 0 1 1 1 1 1 1 1 1 0 1 1 1 1 1 1 1 1 1 1 1 1 1 1 0 0 1 1 2 2 2 3 4 4 4 4 5 5 5 5 5 5
11 10 9 8 7 6 4 3 2 1 0 0 0 1 1 1 1 1 1 0 0 0 0 1 1 1 1 1 1 1 1 0 0 1 0 0 0 0 1 1 2 2 3 4 4 4 5 5 5 5 5 5 5 5
11 10 9 8 8 7 5 3 2 1 1 0 1 1 1 1 1 1 1 0 0 0 0 0 1 1 1 1 0 0 0 0 0 0 0 0 1 1 1 2 2 3 4 4 4 4 5 5 4 4 4 4 5 5
11 10 9 9 9 8 6 4 3 2 1 1 1 1 1 2 2 2 1 1 0 0 0 0 0 0 0 0 0 -0 -0 -0 -0 0 1 1 1 2 2 3 3 4 4 4 4 4 4 4 4 4 4 4 5 5
12 11 11 10 10 9 7 6 5 4 3 2 1 1 1 2 2 2 2 2 1 1 1 0 0 0 0 0 -0 -0 -0 -0 -0 0 1 1 2 2 3 4 4 4 4 4 4 4 4 4 4 4 4 5 5 5
12 12 11 10 10 9 8 7 6 6 5 3 2 2 2 2 2 2 2 2 2 2 1 1 0 0 0 0 -0 -0 -0 0 0 1 1 1 2 2 3 3 3 3 3 3 4 4 4 4 4 5 5 5 5 5
12 11 10 10 10 9 8 7 7 6 6 5 4 3 2 2 1 2 2 2 2 2 2 1 0 -0 -0 -0 -0 -0 0 0 0 1 1 1 2 2 3 3 3 3 3 3 3 4 4 4 5 5 5 6 6 6
11 11 10 10 9 9 9 8 7 7 6 6 5 5 4 3 2 2 2 2 2 2 2 1 1 0 0 0 0 0 0 0 1 1 1 1 2 2 3 3 3 3 3 3 3 3 4 4 5 5 5 6 6 6
11 11 10 10 9 9 9 8 8 7 7 6 6 6 5 5 4 4 3 3 2 2 2 2 1 1 0 0 0 1 1 1 1 1 1 1 2 2 2 3 3 3 3 3 3 3 4 4 4 5 5 5 5 5
11 10 10 10 10 9 9 8 8 7 7 7 6 6 6 5 5 5 4 4 3 3 2 2 1 1 1 1 1 1 2 2 2 2 2 2 2 2 2 2 2 3 3 3 3 3 3 4 4 4 5 5 5 4
10 10 10 10 10 9 8 7 7 7 7 7 7 6 6 6 6 5 5 5 5 4 3 3 3 2 2 2 2 2 3 3 3 2 2 2 2 2 2 2 2 2 2 2 2 2 3 3 4 4 4 5 4 4
9 10 10 10 10 9 8 7 7 7 7 7 7 7 6 6 6 6 6 6 5 5 5 5 5 4 4 4 4 4 4 3 3 3 3 3 3 3 2 2 2 2 2 2 2 2 2 3 4 4 4 5 5 5
9 10 10 10 9 9 8 7 7 7 7 8 8 7 6 6 5 6 7 7 6 6 7 7 7 7 7 7 7 6 6 5 4 3 3 3 3 3 3 3 3 3 3 3 3 3 3 3 4 4 5 5 5 5
10 10 9 9 9 9 8 8 8 8 8 8 8 7 7 6 6 7 8 8 8 8 9 9 10 10 10 10 9 9 8 7 6 5 4 3 3 3 3 4 4 4 4 4 4 4 4 4 4 5 5 5 5 5
10 10 9 8 8 8 8 8 8 8 8 9 8 8 8 8 8 9 9 9 9 10 10 11 11 12 12 12 12 12 11 10 9 7 5 4 3 4 4 4 4 4 5 5 5 5 5 5 5 5 5 5 5 5
10 10 9 9 8 8 8 9 9 9 9 9 9 9 9 9 10 10 10 11 11 11 11 12 12 12 12 12 13 13 13 13 11 10 8 6 5 5 5 5 5 5 5 5 5 5 5 5 5 5 5 5 5 5
9 9 9 9 9 9 9 9 10 10 9 9 9 9 10 10 10 11 12 12 12 12 12 12 12 12 13 13 13 13 14 14 13 12 11 9 8 7 6 5 5 6 6 6 6 6 6 6 5 5 5 5 5 5
9 9 9 9 9 9 10 10 9 9 9 9 9 10 10 10 10 11 12 13 13 13 13 13 13 13 13 13 13 14 14 14 14 13 12 11 9 8 7 6 6 6 6 6 6 6 6 6 6 5 5 5 5 5
9 9 9 9 9 9 9 9 9 8 8 8 9 10 10 9 10 11 12 13 13 13 14 14 14 14 13 13 14 14 14 14 14 14 13 12 10 8 7 6 6 6 6 7 7 6 6 6 6 5 5 5 5 5